Regional Weather Roundup
Issued by NWS

Home | Current Version | Previous Version | Text Only | Print | Product List | Glossary On
Versions: 1 2 3 4 5 6 7 8 9 10 11 12 13 14 15 16 17 18 19 20 21 22 23 24 25 26 27 28 29 30 31 32 33 34 35 36 37 38 39 40 41 42 43 44 45 46 47 48 49 50
010
ASUS43 KDTX 282010
RWRMI
MICHIGAN HOURLY REGIONAL WEATHER ROUNDUP
NATIONAL WEATHER SERVICE DETROIT/PONTIAC MI
400 PM EDT SAT MAY 28 2016

NOTE: "FAIR" INDICATES FEW OR NO CLOUDS BELOW 12,000 FEET WITH NO
SIGNIFICANT WEATHER AND/OR OBSTRUCTION TO VISIBILITY.

MIZ047>049-052>055-059>063-066>070-074>076-081>083-282100-
SOUTHEAST LOWER MICHIGAN

CITY           SKY/WX    TMP DP  RH WIND       PRES   REMARKS
ADRIAN         CLOUDY    84  58  40 SW20G25   30.02F
ALMA           CLOUDY    82  66  57 SW15G21   29.96F
ANN ARBOR      SUNNY     86  57  37 SW15G22   30.00F
BAD AXE        PTSUNNY   82  68  62 S14       30.00S
CARO           SUNNY     85  62  46 SW13      29.97F
DETROIT CITY   MOSUNNY   87  64  46 SW12G18   30.00F
DETROIT        PTSUNNY   84  68  58 SW9       30.01S
FLINT          CLOUDY    85  60  42 SW12      29.99S
GROSSE ILE     CLOUDY    81  68  65 SE6       30.00S
HILLSDALE      CLOUDY    83  54  36 S10G21    30.02F
HOWELL         CLOUDY    82  53  35 SW12      30.00F

CITY           SKY/WX    TMP DP  RH WIND       PRES   REMARKS
JACKSON        CLOUDY    83  60  45 S15G23    30.00F
LAMBERTVILLE   SUNNY     90  57  33 SW13G20   30.01F
LANSING        MOSUNNY   84  66  54 SW15      29.98F
LAPEER         FAIR      88  59  38 S13       29.99S
MASON          CLOUDY    83  63  50 S9G20     29.99F
MONROE         MOSUNNY   88  64  45 SW9G17    29.99F
MT. CLEMENS    MOSUNNY   83  69  62 SE14      29.99F
PONTIAC        CLOUDY    86  62  44 SW12G20   29.99F
PORT HOPE        N/A     65  62  90 SE14      29.97F
PORT HURON     SUNNY     84  68  58 S13G20    30.01S
TRI CITIES     CLOUDY    86  65  49 S15G26    29.97S
MIDLAND        FAIR      84  65  53 SW16G23   29.95S
TROY           HVY RAIN  83  68  60 S22G29    30.05R
SAGINAW HB     CLOUDY    82  59  44 SW20G26   29.97S
$$
MIZ043>046-050>051-056>058-064>065-071>073-077>080-282100-
SOUTHWEST LOWER MICHIGAN

CITY           SKY/WX    TMP DP  RH WIND       PRES   REMARKS
BATTLE CREEK   MOSUNNY   82  61  48 SW14      29.98
BENTON HARBOR  CLOUDY    79  64  60 S10       29.95F
BIG RAPIDS     CLOUDY    79  65  62 SW13G21   29.94F
COLDWATER      MOSUNNY   85  57  39 S9G21     29.99S
FREMONT        FAIR      81  64  57 SW22G31   29.93F
HOLLAND        CLOUDY    82  65  56 SW17G25   29.96R
GRAND RAPIDS   CLOUDY    86  65  49 S15G23    29.95F
IONIA          FAIR      82  57  42 SW16G25   29.96F
KALAMAZOO      PTSUNNY   83  62  49 S14G23    29.97F
LUDINGTON      PTSUNNY   77  65  68 S24G31    29.92F
MARSHALL       MOSUNNY   84  60  44 S12G17    29.98S
MOUNT PLEASANT PTSUNNY   82  65  56 S13G21    29.95F
MUSKEGON       CLOUDY    78  63  59 SW16G25   29.94F
SOUTH HAVEN    PTSUNNY   78  63  59 SW9G18    29.96R
$$
MIZ016>042-282100-
NORTHERN LOWER MICHIGAN

CITY           SKY/WX    TMP DP  RH WIND       PRES   REMARKS
ALPENA         CLOUDY    84  60  44 S21G28    29.92F
BEAVER ISLAND  PTSUNNY   75  64  67 SW14G23   29.89F
BELLAIRE       MOSUNNY   84  61  46 SW10G16   29.89S
CADILLAC       MOSUNNY   81  62  52 S23G32    29.94S
CHARLEVOIX     MOSUNNY   81  64  56 S14G21    29.92S
FRANKFORT      SUNNY     74  64  71 SW17G28   29.90S
GAYLORD        CLOUDY    82  62  50 S20G30    29.93S
GRAYLING       MOSUNNY   81  64  55 S14G23    29.95S
HARBOR SPRINGS MOSUNNY   78  64  61 SW6       29.89F
HOUGHTON LAKE  MOSUNNY   80  62  54 S12G21    29.96F
MANISTEE       PTSUNNY   79  63  57 S18G24    29.91F
OSCODA         CLOUDY    86  60  42 S17G31    29.95S
PELLSTON       MOSUNNY   82  63  52 S10G17    29.90F
ROGERS CITY    MOSUNNY   82  61  49 S17G23    29.91S
TRAVERSE CITY  PTSUNNY   82  62  50 SW10G20   29.87S
$$
MIZ007>008-015-282100-
EASTERN UPPER MICHIGAN

CITY           SKY/WX    TMP DP  RH WIND       PRES   REMARKS
KINROSS          N/A     72  70  94 S8        29.92R
MACKINAC ISLAN PTSUNNY   69  60  73 NW5       29.91R
NEWBERRY       CLOUDY    71  66  82 S14G21    29.88F
S. S. MARIE    PTSUNNY   70  67  90 VRB6      29.90F
MUNISING         N/A     74  64  71 S14G24    29.80S
$$
MIZ004>006-011>014-085-282100-
CENTRAL UPPER MICHIGAN

CITY           SKY/WX    TMP DP  RH WIND       PRES   REMARKS
MANISTIQUE     CLOUDY    59  57  92 S7        29.87S FOG
ESCANABA       CLOUDY    64  59  82 S10G21    29.83R
MENOMINEE      CLOUDY    81  66  61 SW16      29.81S
SAWYER-GWINN   CLOUDY    70  64  83 S15G21    29.81S
$$
MIZ001>003-009>011-084-282100-
WESTERN UPPER MICHIGAN

CITY           SKY/WX    TMP DP  RH WIND       PRES   REMARKS
IRON MOUNTAIN  CLOUDY    75  67  76 S10G21    29.78R
HOUGHTON       LGT RAIN  65  63  93 E6        29.77F FOG
COPPER HARBOR    N/A     65  63  93 CALM      29.77F
IRONWOOD       CLOUDY    59  59 100 CALM      29.74S
$$

ABBREVIATIONS USED IN REMARKS
   TC - TEMPERATURE IN CELSIUS
  WCI - WIND CHILL INDEX
   HX - HEAT INDEX
  VSB - VISIBILITY





USA.gov is the U.S. government's official web portal to all federal, state and local government web resources and services.